User: anonymous   Login
Location: Unspecified
(0.0000°N, 0.0000°E)
Time: 18:03:14
(UTC+00:00)
Language:

STARLINK-4073 - Orbit

View from above orbital plane
View from above orbital plane
View from above satellite
View from above satellite

Ground track
Ground track

The orbit is defined by the following mean orbital elements,

1 52672U          26145.36042698 +.00000000 +00000-0 +21370-4 0 00008
2 52672  53.2124 169.9323 0001211  78.9752 281.1376 15.08837835    03
Epoch (UTC): 25 May 2026 08:39:00
Eccentricity: 0.0001211
inclination: 53.2124°
perigee height: 539 km
apogee height: 541 km
right ascension of ascending node: 169.9323°
argument of perigee: 78.9752°
revolutions per day: 15.08837835
mean anomaly at epoch: 281.1376°

The dashed part of the orbit path shows where the satellite is in the earth's shadow,  

DLR